Location: Unspecified
(0.0000°N, 0.0000°E)
Time: 18:58:20
(UTC+00:00)

Vanguard 2 Rocket - Pass Details

Date: 21 January 2020
Orbit: 554 x 3327 km, 32.9° (Epoch: 20 February)

Event Time Altitude Azimuth Distance (km) Brightness Sun altitude
Rises 09:21:57 0° 339° (NNW) 4,532 10.1 44.0°
Reaches altitude 10° 09:27:38 10° 7° (N) 4,192 10.2 45.3°
Maximum altitude 09:32:07 13° 30° (NNE) 4,438 10.6 46.3°
Drops below altitude 10° 09:37:25 10° 52° (NE) 5,145 11.1 47.4°
Sets 09:46:38 0° 76° (ENE) 6,821 11.8 49.4°
